Regional Weather Roundup
Issued by NWS Northern Indiana

Home | Current Version | Previous Version | Text Only | Print | Product List | Glossary On
Versions: 1 2 3 4 5 6 7 8 9 10 11 12 13 14 15 16 17 18 19 20 21 22 23 24 25 26 27 28 29 30 31 32 33 34 35 36 37 38 39 40 41 42 43 44 45 46 47 48 49 50
000
ASUS43 KIWX 170110
RWRIWX

KIWX WEATHER ROUNDUP
NATIONAL WEATHER SERVICE NORTHERN INDIANA
900 PM EDT TUE SEP 16 2014

NOTE: "FAIR" INDICATES FEW OR NO CLOUDS BELOW 12,000 FEET WITH NO
SIGNIFICANT WEATHER AND/OR OBSTRUCTIONS TO VISIBILITY.

* THESE STATIONS ARE NOT UNDER NWS QUALITY CONTROL. THEY ALSO MAY NOT
  REPORT WEATHER SUCH AS PRECIPITATION OR FOG.

INZ001>027-170200-
NORTHERN INDIANA

CITY           SKY/WX    TMP DP  RH WIND       PRES   REMARKS
GARY*          CLEAR     54  50  87 E5        30.10S
VALPARAISO     CLEAR     52  47  83 CALM      30.10S
MICHIGAN CITY* CLEAR     50  50 100 CALM      30.11R
LAPORTE*       CLEAR     50  47  90 CALM      30.11S
KNOX*          PTCLDY    55  48  80 CALM      30.10R
SOUTH BEND     CLEAR     52  47  83 CALM      30.11S
ELKHART*       MOCLDY    52  46  82 CALM      30.12S
GOSHEN         CLEAR     55  48  77 N6        30.10S
MONTICELLO*    CLEAR     53  51  94 CALM      30.10R
LOGANSPORT*    CLEAR     52  46  82 CALM      30.11R
ROCHESTER*     CLEAR     54  50  87 CALM      30.10S
WARSAW*        CLOUDY    54  48  82 CALM      30.11R
ANGOLA*        MOCLDY    55  48  76 N5        30.10S
FORT WAYNE     PTCLDY    53  48  83 CALM      30.11R
HUNTINGTON*    CLEAR     51  49  90 W3        30.10S
PERU/GRISSOM   CLEAR     55  53  94 NE2       30.10S
MARION*        CLEAR     53  48  83 CALM      30.11S

$$
INZ028>050-170200-
CENTRAL INDIANA

CITY           SKY/WX    TMP DP  RH WIND       PRES   REMARKS
LAFAYETTE      CLEAR     53  52  96 MISG      30.10R
KOKOMO*        CLEAR     54  46  76 CALM      30.10S
MUNCIE*        PTCLDY    52  49  89 CALM      30.11S
INDIANAPOLIS   PTCLDY    57  50  77 S6        30.10R

$$
MIZ043>046-050>051-056>058-064>065-071>073-077>080-170200-
SOUTHWEST LOWER MICHIGAN

CITY           SKY/WX    TMP DP  RH WIND       PRES   REMARKS
BATTLE CREEK   CLEAR     52  43  71 NW5       30.11S
BENTON HARBOR  CLEAR     48  46  93 CALM      30.10F
COLDWATER*     CLEAR     56  47  72 NW3       30.11R
HILLSDALE*     PTCLDY    49  48  95 CALM      30.10R
HOLLAND        CLEAR     49  45  86 CALM      30.11F
GRAND RAPIDS   CLEAR     53  43  68 SW5       30.11S
KALAMAZOO      CLEAR     51  43  74 NW3       30.12S
STURGIS*       CLEAR     52  48  87 N3        30.11R
THREE RIVERS*  FAIR      53  47  82 CALM      30.11S

$$
OHZ001>008-015>018-024>025-170200-
NORTHWEST OHIO

CITY           SKY/WX    TMP DP  RH WIND       PRES   REMARKS
WAUSEON*       FAIR      52  48  87 W3        30.09R
DEFIANCE       CLEAR     53  48  83 CALM      30.09S
FINDLAY        CLEAR     54  47  77 S3        30.09S
TOLEDO EXPRESS CLEAR     50  48  93 CALM      30.08S
TOLEDO METCALF CLEAR     58  45  62 SW3       30.09S
LIMA           CLEAR     53  47  79 SW3       30.10S

$$
&&


USA.gov is the U.S. government's official web portal to all federal, state and local government web resources and services.